STARLINK-4501 (53553 NORAD) Tracking and Keplerian Element Data

This shows tracking and keplerian element data for the satellite.

Feedback or suggestion? Click here.




ElementValue
Catalog53553
NameSTARLINK-4501
Epoch Orbit1444
Epoch Day325.02907768
Epoch Year2022
RAAN72.0381
Inclination53.2191
Eccentricity0.0001467
Argument of Perigee68.5111
Mean Anonmoly291.6038
Mean Motion15.08831984
Decay Rate-7.1E-07
L11 53553U 22101AC 22325.02907768 -.00000071 00000+0 13610-4 0 9993
L22 53553 53.2191 72.0381 0001467 68.5111 291.6038 15.08831984 14444



Live tracking and technical data element details for STARLINK-4501 (NORAD 53553). STARLINK-4501 can be tracked NOW for your location showing map with azimuth and elevation plus other details from your city location.







IsCatalogInMostPopularTable: catalog: 53553, numindb: 3
Update: records affected: 1



GetName: 53553 STARLINK-4501

Hit Count: updated at: Thu, 08 Dec 2022 20:53:17 GMT